Wind_Speed
15 11 9 7 5 3 2 1 6 9 10 11 10 10 12 13 14 16 18 19 21 22 23 24 24 24 28 30 27 26 33 39
13 14 11 9 7 6 5 5 3 3 8 10 9 8 8 10 12 13 15 18 19 21 23 24 26 26 25 24 24 25 26 32
13 13 12 13 12 12 11 11 9 9 7 3 6 8 8 10 9 10 12 13 16 18 20 21 23 25 25 26 27 27 25 21
11 13 16 14 13 13 13 13 13 13 13 12 7 3 5 9 12 11 12 12 14 15 18 20 20 22 23 23 26 29 29 22
11 12 14 17 18 17 14 13 13 12 12 13 15 18 12 16 15 13 12 13 14 14 16 18 20 20 20 21 22 26 28 30
13 14 15 15 17 20 19 19 19 16 15 16 15 21 21 19 17 16 14 13 14 15 16 16 17 17 18 19 19 20 24 29
8 9 9 10 8 8 16 20 18 18 16 13 17 17 22 21 18 18 18 18 17 16 14 15 16 15 15 16 17 19 20 22
6 8 9 10 12 12 9 10 17 20 19 16 8 11 17 21 22 22 21 20 19 18 17 15 15 16 16 17 17 18 19 23
7 11 13 15 16 16 16 12 8 9 10 13 16 16 16 18 20 20 20 21 21 20 19 19 17 17 17 18 18 19 20 23
5 8 10 12 13 15 15 15 15 15 12 12 12 13 14 14 14 16 17 18 19 20 20 18 19 19 18 17 18 18 23 23
5 8 10 11 13 12 12 14 14 13 14 14 13 13 14 14 14 13 14 16 17 17 18 19 19 18 18 18 16 17 20 23
5 8 10 10 10 11 12 13 13 13 12 12 12 13 14 14 15 15 15 15 15 16 17 17 18 18 17 14 16 17 17 17
3 7 8 9 10 10 11 12 12 13 12 13 15 16 18 19 20 19 18 17 16 16 17 18 19 20 20 17 15 14 14 12
3 4 6 8 9 9 10 10 11 12 13 15 16 19 21 23 23 23 22 21 20 21 24 27 29 26 23 19 17 17 14 13
2 4 6 6 8 9 10 10 10 12 13 15 17 19 20 21 21 21 22 23 24 26 29 31 31 31 28 25 23 21 19 18
5 4 5 6 8 10 10 10 11 12 13 15 18 18 17 19 20 21 21 20 24 25 26 27 30 32 32 32 30 29 28 25
7 6 5 6 7 9 11 11 11 12 14 15 15 15 15 18 18 20 20 21 23 25 27 27 29 31 30 30 32 34 35 35
10 7 6 6 5 7 11 12 12 13 13 14 15 15 17 18 18 18 19 21 23 25 27 27 29 29 29 29 30 32 34 36
11 9 7 7 5 6 7 9 10 11 12 14 15 15 16 16 16 18 20 21 24 25 25 28 29 31 30 31 30 32 33 35
Wind_Direction
29 32 33 32 44 55 73 197 215 216 212 209 214 224 234 236 241 246 252 258 262 265 265 267 266 263 254 247 246 249 253 259
36 32 31 35 31 25 27 20 354 256 226 219 217 228 240 247 251 254 257 261 263 263 263 264 263 262 262 258 259 256 253 252
32 27 23 22 26 31 23 21 24 14 351 282 241 240 249 262 267 268 267 266 267 268 268 265 263 261 257 256 255 255 253 251
30 29 29 29 24 20 25 27 32 38 30 2 338 263 267 279 275 277 275 274 273 272 273 272 271 268 261 254 250 248 247 243
33 29 28 29 30 30 15 21 7 11 14 17 2 344 352 331 321 311 306 294 289 279 275 275 277 277 273 265 255 250 246 244
43 32 19 13 12 12 17 12 15 7 359 335 341 344 330 325 326 325 319 313 300 292 284 281 280 280 277 273 267 258 251 247
44 51 52 46 30 359 353 356 354 356 349 326 322 325 315 318 326 324 325 319 313 306 300 286 281 282 278 273 268 268 264 260
37 35 30 22 20 21 9 345 341 339 340 343 343 308 309 325 334 332 328 325 321 317 314 304 288 284 283 276 271 268 268 268
28 15 7 3 356 1 360 355 353 347 345 332 323 335 339 336 333 334 334 332 331 328 323 314 305 295 290 281 277 275 273 268
355 356 359 358 353 352 352 350 355 357 0 356 347 343 347 350 340 341 340 340 339 338 337 332 321 313 306 298 291 282 274 272
341 356 2 357 354 357 356 357 0 1 3 3 2 4 6 7 4 2 359 356 353 350 349 346 340 331 324 316 305 294 288 274
340 353 354 353 353 358 4 8 9 10 17 18 16 15 18 18 19 17 17 14 11 8 5 3 358 353 345 339 328 314 303 289
344 353 356 3 10 15 16 17 16 20 22 30 35 39 40 39 34 30 27 28 26 26 28 25 18 16 12 4 355 345 336 320
343 24 31 20 21 27 28 26 33 37 40 42 44 46 47 46 42 38 38 39 41 44 45 40 32 28 26 24 18 14 7 360
101 63 52 39 36 37 41 43 44 45 47 46 46 45 45 46 45 42 40 41 45 47 48 49 42 36 32 32 34 32 27 21
132 101 77 60 52 51 50 45 48 49 49 47 44 43 42 45 43 42 41 43 46 46 48 48 48 42 39 36 38 38 38 36
140 120 101 82 60 53 54 51 48 47 46 46 44 40 38 42 42 41 38 41 46 46 45 44 46 45 40 40 40 41 41 40
146 147 138 113 75 67 56 48 51 53 49 48 50 46 44 41 41 41 39 40 43 47 45 43 43 43 43 38 39 40 40 37
157 163 162 132 96 71 55 53 56 52 52 51 49 46 46 45 42 43 44 41 41 41 41 41 38 38 38 37 37 38 39 37
Height
1492 1491 1489 1487 1484 1482 1479 1478 1477 1477 1478 1479 1480 1481 1482 1483 1483 1482 1481 1482 1483 1482 1482 1482 1482 1482 1483 1484 1484 1485 1485 1482
1495 1492 1491 1489 1487 1484 1481 1479 1479 1479 1478 1478 1478 1478 1479 1480 1480 1480 1478 1477 1477 1477 1476 1476 1475 1476 1477 1478 1477 1478 1478 1480
1497 1496 1493 1490 1488 1485 1483 1482 1480 1479 1479 1477 1477 1476 1477 1478 1478 1476 1475 1473 1472 1471 1470 1469 1469 1469 1470 1470 1470 1470 1472 1475
1500 1498 1496 1493 1490 1487 1485 1483 1482 1480 1479 1480 1478 1476 1474 1476 1476 1473 1472 1470 1469 1466 1465 1463 1462 1462 1461 1461 1461 1461 1463 1466
1502 1500 1497 1495 1492 1489 1487 1484 1483 1480 1479 1477 1477 1476 1469 1475 1473 1471 1468 1467 1466 1461 1459 1457 1456 1456 1454 1453 1453 1453 1453 1455
1502 1499 1497 1496 1494 1492 1488 1486 1483 1480 1478 1475 1473 1471 1473 1477 1473 1467 1463 1462 1462 1458 1455 1452 1451 1450 1448 1446 1445 1445 1446 1446
1503 1499 1496 1493 1491 1490 1489 1487 1485 1483 1478 1475 1473 1477 1475 1476 1468 1464 1459 1457 1457 1454 1451 1448 1447 1446 1444 1441 1440 1439 1439 1438
1503 1499 1496 1493 1489 1486 1484 1484 1483 1480 1479 1477 1476 1474 1475 1467 1463 1457 1456 1455 1452 1450 1447 1444 1442 1441 1438 1436 1434 1433 1433 1432
1504 1500 1497 1494 1492 1488 1487 1485 1482 1480 1476 1476 1475 1473 1468 1464 1461 1457 1455 1452 1448 1445 1441 1438 1437 1435 1432 1430 1428 1427 1425 1425
1503 1500 1496 1494 1491 1488 1486 1485 1481 1478 1476 1474 1472 1469 1467 1461 1458 1457 1454 1451 1445 1441 1437 1435 1432 1429 1427 1425 1423 1422 1420 1419
1503 1500 1497 1494 1492 1488 1486 1485 1482 1479 1477 1473 1471 1468 1464 1460 1458 1455 1452 1447 1443 1439 1435 1432 1430 1427 1424 1421 1419 1416 1414 1412
1500 1499 1496 1494 1492 1488 1486 1485 1482 1480 1478 1475 1472 1469 1462 1460 1456 1454 1450 1446 1443 1438 1434 1431 1428 1423 1419 1417 1414 1410 1408 1404
1496 1496 1496 1495 1491 1488 1487 1486 1484 1481 1479 1476 1474 1470 1465 1461 1458 1456 1451 1448 1445 1440 1434 1430 1426 1422 1417 1412 1412 1408 1403 1398
1496 1495 1495 1495 1493 1490 1488 1488 1486 1485 1481 1478 1475 1472 1467 1462 1460 1459 1455 1452 1448 1443 1436 1430 1426 1422 1418 1414 1410 1404 1402 1397
1496 1496 1494 1494 1492 1490 1489 1489 1488 1486 1483 1480 1477 1473 1469 1464 1463 1462 1458 1455 1450 1444 1437 1432 1431 1426 1422 1415 1409 1406 1401 1397
1494 1494 1494 1494 1492 1491 1489 1489 1488 1486 1484 1482 1478 1474 1473 1468 1465 1462 1460 1457 1451 1446 1442 1438 1434 1430 1425 1420 1413 1407 1401 1398
1491 1492 1493 1494 1492 1491 1490 1490 1489 1487 1485 1481 1478 1477 1474 1469 1468 1464 1462 1458 1453 1448 1445 1442 1437 1433 1430 1424 1419 1412 1405 1399
1489 1491 1492 1492 1492 1491 1490 1489 1489 1487 1485 1483 1480 1478 1474 1471 1469 1467 1465 1461 1456 1451 1448 1444 1440 1437 1433 1428 1422 1415 1408 1402
1487 1489 1490 1491 1491 1491 1490 1491 1490 1488 1487 1484 1481 1480 1478 1476 1473 1469 1466 1463 1457 1454 1450 1445 1442 1438 1433 1430 1422 1416 1409 1402